User: anonymous   Login
Location: Hookston
(37.9413°N, 122.0527°W)
Time: 12:10:27
(UTC+00:00)
Language:

Thor Agena Rocket - Orbit

View from above orbital plane
View from above orbital plane
View from above satellite
View from above satellite

Ground track
Ground track

The orbit data is extracted from the following two-line orbital elements,

1   733U 64002A   24203.88911178  .00000648  00000-0  25146-3 0  9998
2   733  99.0761 175.0224 0032986 191.2610 168.7838 14.33263928153366
Epoch (UTC): 21 July 2024 21:20:19
Eccentricity: 0.0032986
inclination: 99.0761°
perigee height: 757 km
apogee height: 804 km
right ascension of ascending node: 175.0224°
argument of perigee: 191.2610°
revolutions per day: 14.33263928
mean anomaly at epoch: 168.7838°
orbit number at epoch: 15336

The dashed part of the orbit path shows where the satellite is in the earth's shadow,  

DLR